Tracking 29790 objects as of 12-Oct-2024
HD Live streaming from Space Station
objects crossing your sky now

SL-14 DEB

Track SL-14 DEB now!
10-day predictions


NORAD ID: 45267
Int'l Code: 1991-056D
Perigee: 1,202.8 km
Apogee: 1,226.3 km
Inclination: 82.6 °
Period: 109.6 minutes
Semi major axis: 7585 km
RCS: Unknown
Launch date: August 15, 1991
Source: Commonwealth of Independent States (former USSR) (CIS)
Launch site: PLESETSK MISSILE AND SPACE COMPLEX (PKMTR)

Note: This is SATELLITE DEBRIS
Your satellite tracking list
Your tracking list is empty




NASA's NSSDC Master Catalog

Two Line Element Set (TLE):
1 45267U 91056D   24285.51728609  .00000438  00000-0  11536-2 0  9997
2 45267  82.5688 220.9905 0015483 358.3267   1.7799 13.14092239223627
Source of the keplerian elements: AFSPC